Date,TemperatureHighF,TemperatureAvgF,TemperatureLowF,DewpointHighF,DewpointAvgF,DewpointLowF,HumidityHigh,HumidityAvg,HumidityLow,PressureMaxIn,PressureMinIn,WindSpeedMaxMPH,WindSpeedAvgMPH,GustSpeedMaxMPH,PrecipitationSumIn
2012-1-1,47.3,38.6,29.2,30.4,11.2,-4.2,69,34,19,30.77,30.77,16,9,26,0.04
2012-1-2,29.8,24.4,19.0,8.9,-0.9,-9.5,51,33,25,30.77,30.77,13,8,23,0.00
2012-1-3,27.0,20.7,16.0,1.0,-6.9,-13.3,44,29,21,30.77,30.77,8,5,13,0.00
2012-1-4,39.4,30.5,21.6,8.5,-1.2,-8.9,32,25,21,30.77,30.77,12,5,15,0.00
2012-1-5,49.0,36.9,25.3,10.3,7.3,2.4,44,31,16,30.77,30.77,10,4,17,0.00
2012-1-6,56.9,44.9,37.6,13.6,10.4,6.3,32,25,17,30.77,28.70,13,5,17,0.00
2012-1-7,46.6,37.9,29.2,16.1,10.4,2.5,46,33,19,29.18,28.70,8,4,13,0.00
2012-1-8,46.2,32.9,21.9,16.1,5.9,0.3,48,33,20,29.32,29.18,6,1,8,0.00
2012-1-9,48.4,35.0,23.5,11.7,5.0,0.9,44,30,19,29.24,29.00,9,3,15,0.00
2012-1-10,51.3,37.4,28.0,13.0,7.8,3.1,43,30,19,29.06,28.85,7,2,11,0.00
2012-1-11,41.4,37.5,31.3,33.1,19.8,8.9,78,51,29,28.85,28.41,8,2,12,0.51
2012-1-12,38.8,30.3,16.0,32.6,17.2,-7.6,79,61,32,28.56,28.38,17,7,25,0.04
2012-1-13,19.8,16.8,14.2,-0.8,-2.8,-5.2,48,42,33,29.03,28.53,16,10,25,0.00
2012-1-14,28.2,17.7,7.5,-2.0,-8.3,-15.4,43,31,21,29.20,29.03,8,2,12,0.00
2012-1-15,31.8,15.9,1.6,-0.3,-11.0,-20.4,41,30,20,29.38,29.15,6,2,13,0.00
2012-1-16,50.4,39.7,26.1,42.7,14.9,0.2,75,39,20,29.15,28.76,7,4,13,0.00
2012-1-17,54.7,43.3,26.1,48.0,29.8,0.8,78,60,32,29.09,28.56,17,7,33,1.10
2012-1-18,30.2,24.6,19.9,2.1,-3.4,-9.2,39,29,20,29.24,28.97,9,3,15,0.00
2012-1-19,29.8,21.9,4.1,14.3,-2.2,-21.2,52,34,28,29.12,28.82,12,5,18,0.00
2012-1-20,18.3,12.0,0.3,-0.5,-12.5,-24.5,45,32,23,29.18,28.94,12,4,15,0.00
2012-1-21,26.6,18.6,12.0,1.0,-5.4,-12.9,45,35,21,29.20,28.91,7,2,12,0.00
2012-1-22,44.8,31.4,19.9,37.7,13.6,1.0,76,48,31,29.15,28.67,9,5,15,0.12
2012-1-23,50.0,41.5,33.3,43.4,24.6,6.3,78,53,31,28.91,28.50,17,9,28,0.24
2012-1-24,34.5,31.5,26.1,10.5,6.0,3.4,43,34,27,29.29,28.88,9,5,15,0.00
2012-1-25,33.6,28.6,21.2,20.6,11.1,4.1,59,48,37,29.29,29.06,6,1,8,0.00
2012-1-26,35.6,33.8,33.1,28.5,26.2,20.3,79,73,59,29.06,28.53,7,3,9,0.91
2012-1-27,41.4,35.2,31.9,28.4,16.7,-2.9,78,52,16,28.97,28.56,10,5,17,0.04
2012-1-28,34.9,32.4,28.4,25.7,4.9,-8.5,73,34,17,29.15,28.82,16,8,25,0.00
2012-1-29,36.7,30.1,22.1,14.0,-0.2,-4.5,46,27,19,29.24,28.97,15,6,25,0.00
2012-1-30,50.0,35.8,20.3,7.3,3.1,-3.2,44,27,16,29.24,28.94,8,3,15,0.00
2012-1-31,59.2,51.1,43.3,34.9,11.8,2.7,52,22,14,29.00,28.88,12,6,20,0.12
2012-2-1,54.5,47.0,36.9,44.0,24.4,13.7,71,43,20,29.09,28.88,12,3,16,0.04
2012-2-2,48.6,36.6,28.6,26.2,14.0,4.6,72,43,19,29.35,29.09,6,0,8,0.00
2012-2-3,56.0,38.7,25.3,25.9,13.4,5.9,54,38,15,29.41,29.26,8,1,9,0.04
2012-2-4,39.7,36.3,34.0,24.4,19.4,14.4,64,50,40,29.29,29.09,9,6,14,0.20
2012-2-5,48.0,35.2,24.4,23.3,9.4,-2.4,67,39,14,29.24,29.09,5,0,6,0.00
2012-2-6,47.1,33.4,24.3,21.1,10.8,3.2,61,41,17,29.20,29.06,10,3,15,0.00
2012-2-7,36.7,32.9,29.5,22.5,12.1,6.8,63,42,30,29.24,29.12,7,1,11,0.00
2012-2-8,37.5,32.5,27.3,15.8,5.0,-4.2,57,33,19,29.29,29.20,8,3,12,0.08
2012-2-9,32.4,27.5,21.9,7.7,1.1,-4.0,46,33,23,29.29,29.12,10,4,14,0.00
2012-2-10,35.6,31.4,24.3,19.9,7.6,-0.4,58,37,25,29.12,28.82,12,4,15,0.00
2012-2-11,23.8,15.4,8.6,2.4,-10.8,-18.6,39,30,25,29.29,28.94,13,6,17,0.00
2012-2-12,31.6,20.6,9.3,1.0,-8.5,-18.0,35,27,23,29.26,29.18,10,5,17,0.00
2012-2-13,38.7,28.0,16.7,8.0,-3.3,-10.8,41,26,19,29.18,28.94,7,3,12,0.00
2012-2-14,38.0,32.6,28.4,18.6,11.8,7.5,52,42,29,29.06,28.85,8,3,11,0.04
2012-2-15,45.0,38.0,33.1,23.6,14.5,7.8,51,39,22,29.18,28.97,6,3,10,0.24
2012-2-16,44.9,40.6,33.3,35.7,24.0,13.0,77,53,29,29.12,28.91,9,3,15,0.12
2012-2-17,48.9,37.2,28.4,17.9,6.2,-1.9,58,30,16,29.18,29.00,8,3,12,0.00
2012-2-18,43.0,35.0,26.6,14.4,4.5,-4.5,48,28,18,29.15,28.97,10,3,15,0.00
2012-2-19,26.4,23.7,23.5,1.3,0.9,-1.5,37,36,31,29.12,29.09,3,2,6,0.00
2012-2-20,23.5,23.5,23.5,1.0,1.0,1.0,37,37,37,29.09,29.09,2,2,2,0.00
2012-2-21,23.5,23.5,23.5,1.0,1.0,1.0,37,37,37,29.09,29.09,2,2,2,0.00
2012-2-22,23.5,23.5,23.5,1.0,1.0,1.0,37,37,37,29.09,29.09,2,2,2,0.00
2012-2-23,23.5,23.5,23.5,1.0,1.0,1.0,37,37,37,29.09,29.09,2,2,2,0.00
2012-2-24,23.5,23.5,23.5,1.0,1.0,1.0,37,37,37,29.09,29.09,2,2,2,0.00
2012-2-25,34.0,26.6,20.3,1.1,-3.4,-7.8,37,27,20,29.32,28.94,12,5,18,0.00
2012-2-26,48.7,34.0,18.7,5.2,0.4,-4.8,41,25,16,29.35,29.09,9,3,15,0.00
2012-2-27,46.1,38.6,25.0,7.2,2.5,-3.3,34,22,18,29.44,29.09,14,5,21,0.00
2012-2-28,51.4,36.8,21.2,10.5,4.5,-1.0,42,27,19,29.44,28.94,7,3,12,0.00
2012-2-29,69.4,52.8,40.3,52.0,18.5,3.4,76,31,12,28.94,28.50,16,8,25,0.00
2012-3-1,42.8,37.4,32.5,10.3,5.0,0.3,39,26,20,28.91,28.64,13,6,24,0.00
2012-3-2,58.8,41.7,31.8,46.7,17.6,8.6,74,39,26,28.79,28.23,28,7,36,0.00
2012-3-3,36.0,32.9,30.5,10.7,4.6,-1.4,43,30,23,28.85,28.56,15,8,24,0.00
2012-3-4,35.8,31.0,27.1,10.0,5.9,-0.9,41,35,22,28.91,28.76,9,3,14,0.00
2012-3-5,38.1,30.4,25.0,8.7,0.2,-6.0,45,28,21,29.38,28.85,9,4,13,0.00
2012-3-6,63.7,46.0,28.6,16.6,7.3,-2.1,30,21,16,29.35,29.06,10,5,19,0.00
2012-3-7,69.8,58.1,48.1,19.9,13.3,7.7,19,17,14,29.18,28.97,20,7,28,0.00
2012-3-8,61.2,48.4,34.0,47.5,19.8,1.1,71,34,16,29.20,28.85,12,6,20,0.00
2012-3-9,42.7,35.1,25.2,6.1,1.4,-6.2,31,24,20,29.50,29.18,13,6,17,0.00
2012-3-10,55.0,37.6,22.5,12.2,2.8,-6.2,33,23,18,29.47,29.29,8,2,13,0.00
2012-3-11,70.8,52.6,36.1,19.9,10.0,0.9,22,18,14,29.32,29.15,8,2,13,0.00
2012-3-12,68.4,59.5,51.8,39.1,27.4,11.2,50,31,17,29.15,28.82,12,5,18,0.00
2012-3-13,72.1,61.1,47.7,39.8,23.7,11.0,49,26,14,29.12,28.88,10,3,17,0.00
2012-3-14,82.0,65.6,48.0,25.8,21.2,15.2,34,20,12,29.12,29.03,10,2,15,0.00
2012-3-15,82.6,69.6,61.3,38.7,27.3,19.8,41,22,14,29.09,29.00,12,5,17,0.00
2012-3-16,81.7,67.0,55.9,42.9,27.7,16.7,60,26,12,29.15,29.06,9,2,13,0.00
2012-3-17,79.5,65.8,52.5,38.9,27.5,19.0,47,27,12,29.18,29.06,6,1,11,0.00
2012-3-18,79.9,68.3,60.6,37.4,28.6,18.5,39,25,12,29.15,29.03,9,2,15,0.00
2012-3-19,86.4,72.0,61.0,36.3,28.9,21.2,37,22,13,29.12,29.03,8,1,13,0.00
2012-3-20,87.8,73.5,60.6,30.8,25.3,18.9,25,17,13,29.15,29.03,6,1,12,0.00
2012-3-21,90.3,72.4,60.1,32.1,24.7,18.8,24,17,12,29.18,29.09,6,0,8,0.00
2012-3-22,87.6,72.9,61.6,30.6,25.6,19.9,25,18,13,29.18,29.06,6,1,11,0.00
2012-3-23,68.4,62.4,56.3,49.9,37.7,25.8,75,41,23,29.09,28.82,7,2,10,0.75
2012-3-24,70.8,58.5,51.1,45.9,31.1,14.4,75,43,12,28.88,28.76,8,2,12,0.00
2012-3-25,72.5,60.7,52.0,49.0,32.4,17.1,75,42,14,29.06,28.88,7,3,12,0.04
2012-3-26,54.1,47.7,38.5,29.8,9.9,1.9,40,22,18,29.32,29.06,9,4,16,0.00
2012-3-27,66.6,48.9,32.7,17.4,8.0,-1.1,23,19,15,29.32,28.94,8,4,13,0.00
2012-3-28,71.6,62.8,47.5,27.7,18.0,9.6,27,18,14,29.00,28.82,16,7,27,0.00
2012-3-29,63.5,50.6,35.1,20.1,12.0,8.2,40,22,16,29.09,29.00,7,2,12,0.00
2012-3-30,76.3,55.7,41.7,25.7,18.2,6.6,41,24,15,29.00,28.64,13,6,25,0.04
2012-3-31,55.9,45.6,38.2,20.6,15.2,9.2,42,30,17,28.94,28.82,7,3,9,0.00
2012-4-1,77.1,57.6,38.3,27.2,21.6,15.5,50,28,13,28.88,28.64,9,4,15,0.00
2012-4-2,66.2,55.6,44.2,22.7,15.0,9.0,29,20,15,28.97,28.73,10,7,15,0.00
2012-4-3,86.7,65.1,48.7,30.0,19.7,9.7,26,18,13,28.94,28.79,8,2,13,0.00
2012-4-4,68.7,59.5,49.3,22.1,18.2,8.7,26,20,16,28.91,28.82,12,5,16,0.00
2012-4-5,57.7,48.7,40.5,13.2,8.2,3.6,23,19,17,29.06,28.85,12,6,18,0.00
2012-4-6,61.0,46.2,32.9,18.4,8.5,1.0,34,22,16,29.24,29.06,8,3,13,0.00
2012-4-7,71.6,52.4,27.9,24.3,11.3,-4.5,26,19,16,29.29,29.12,7,1,11,0.00
2012-4-8,64.2,56.6,48.7,19.8,14.3,8.2,27,19,17,29.20,29.06,14,6,21,0.00
2012-4-9,65.6,52.6,38.7,20.9,12.2,2.0,29,20,17,29.09,28.88,15,4,24,0.00
2012-4-10,49.8,40.5,30.0,9.1,3.4,-3.4,24,21,19,29.06,28.91,12,6,18,0.00
2012-4-11,58.5,41.6,27.3,16.3,4.6,-3.8,31,21,17,29.24,29.03,10,3,13,0.00
2012-4-12,64.8,46.5,27.5,20.2,9.2,-1.1,34,22,17,29.26,29.12,7,2,12,0.00
2012-4-13,72.1,54.4,32.4,24.2,13.1,-0.2,30,19,16,29.20,29.06,6,1,9,0.00
2012-4-14,63.7,57.4,51.0,46.0,24.7,9.6,60,31,17,29.09,28.88,7,2,13,0.00
2012-4-15,81.3,69.0,58.3,46.9,29.1,21.5,63,26,14,28.91,28.79,13,4,24,0.00
2012-4-16,69.2,62.3,48.6,49.9,22.9,11.1,62,23,17,29.20,28.73,20,8,32,0.00
2012-4-17,66.2,52.3,37.9,25.5,16.1,6.3,42,25,15,29.32,29.20,8,2,13,0.00
2012-4-18,73.5,55.7,34.7,24.5,17.0,7.0,44,24,15,29.26,29.03,6,1,8,0.00
2012-4-19,80.4,64.5,51.7,28.5,19.0,9.6,21,17,15,29.03,28.88,8,2,16,0.00
2012-4-20,74.8,58.0,43.9,38.2,25.1,15.2,75,35,16,28.88,28.73,13,5,20,0.00
2012-4-21,59.4,46.6,40.5,37.7,15.5,7.9,76,31,17,28.94,28.85,6,1,8,0.00
2012-4-22,54.5,45.7,39.1,19.7,11.1,2.4,42,26,18,28.94,28.88,9,2,13,0.00
2012-4-23,60.6,46.1,34.7,15.5,6.6,-0.3,22,20,17,28.94,28.76,16,7,23,0.00
2012-4-24,65.2,49.6,32.9,20.6,9.5,-1.1,23,20,17,28.76,28.67,14,5,17,0.00
2012-4-25,72.3,56.8,41.4,32.6,17.7,4.3,38,22,16,28.79,28.64,7,2,11,0.00
2012-4-26,68.5,56.3,37.8,49.3,25.5,1.2,75,35,15,29.06,28.58,14,6,19,0.00
2012-4-27,59.9,46.1,27.0,14.9,6.9,-3.4,26,20,17,29.24,29.06,8,3,13,0.00
2012-4-28,49.1,46.5,41.2,19.7,10.1,4.7,37,23,19,29.15,28.97,13,7,18,0.00
2012-4-29,65.8,53.9,40.5,21.1,14.7,8.0,34,21,16,29.20,29.09,9,6,13,0.00
2012-4-30,85.3,64.9,52.7,55.3,29.8,10.6,77,33,13,29.09,28.85,12,4,20,0.00
2012-5-1,73.6,63.0,54.5,54.2,40.1,14.8,76,49,12,29.09,28.88,8,2,10,0.00
2012-5-2,85.6,73.3,61.7,56.2,35.8,22.3,76,34,11,29.03,28.88,15,4,20,0.00
2012-5-3,89.0,77.4,66.4,39.6,30.6,22.4,35,20,10,29.06,28.94,13,4,22,0.00
2012-5-4,86.7,72.5,63.9,40.8,32.3,21.2,37,24,13,29.03,28.91,7,2,11,0.00
2012-5-5,77.9,67.8,61.9,51.9,34.5,23.2,69,32,15,29.06,28.94,8,4,13,0.00
2012-5-6,87.1,68.9,53.4,32.3,25.0,17.1,43,21,11,29.09,28.91,7,3,10,0.00
2012-5-7,80.6,66.6,52.1,44.1,29.6,15.4,63,28,14,28.94,28.82,9,2,15,0.00
2012-5-8,74.8,63.1,53.2,46.4,27.5,12.6,75,32,13,28.91,28.85,9,4,15,0.00
2012-5-9,68.5,59.1,46.9,21.0,16.5,9.6,29,19,15,28.94,28.85,10,4,15,0.00
2012-5-10,72.3,55.2,38.8,24.1,16.4,6.6,42,23,15,29.06,28.91,8,2,13,0.00
2012-5-11,79.1,61.8,39.0,27.4,18.2,4.4,30,19,15,29.18,29.06,7,0,9,0.00
2012-5-12,82.9,67.4,55.4,28.8,20.1,11.2,20,16,14,29.26,29.18,7,1,12,0.00
2012-5-13,82.0,67.0,53.1,41.5,25.7,18.5,51,23,14,29.20,29.06,6,1,9,0.00
2012-5-14,82.6,67.3,50.2,34.2,24.7,15.2,40,21,14,29.12,29.00,6,1,11,0.00
2012-5-15,84.6,68.3,47.8,29.6,21.2,10.0,24,17,13,29.06,28.94,8,2,15,0.00
2012-5-16,66.1,61.0,52.5,20.7,17.7,10.2,19,18,17,29.12,28.91,6,1,9,0.00
2012-5-17,73.9,60.4,40.6,24.9,17.2,6.3,29,19,16,29.18,29.09,8,3,13,0.00
2012-5-18,84.5,67.4,47.1,29.7,20.2,6.9,20,17,13,29.15,29.03,6,2,10,0.00
2012-5-19,91.2,73.6,50.5,32.1,23.5,10.0,21,16,12,29.15,29.06,5,0,8,0.00
2012-5-20,94.1,78.6,60.3,32.9,26.3,17.8,22,15,11,29.15,29.03,6,1,9,0.00
2012-5-21,76.1,68.0,55.8,37.1,25.4,17.0,34,21,15,29.09,29.00,8,3,12,0.00
2012-5-22,83.3,65.1,50.9,28.6,22.5,15.2,31,20,14,29.06,28.91,5,1,8,0.00
2012-5-23,87.5,70.1,47.1,30.6,23.3,12.6,31,18,13,28.94,28.85,6,0,13,0.00
2012-5-24,91.5,77.8,61.7,34.6,28.8,20.0,34,18,12,28.94,28.79,9,2,15,0.00
2012-5-25,96.8,81.6,72.3,33.6,27.6,23.6,16,14,11,29.12,28.88,8,3,13,0.00
2012-5-26,97.7,81.9,69.1,34.3,27.9,22.4,17,14,11,29.18,29.06,7,2,12,0.00
2012-5-27,99.7,84.2,66.6,35.4,29.8,22.2,27,15,10,29.12,28.97,7,2,12,0.00
2012-5-28,99.1,84.8,70.7,34.9,30.9,24.3,25,15,10,29.00,28.85,9,3,16,0.00
2012-5-29,88.5,77.4,68.0,48.7,31.3,22.1,43,20,13,28.91,28.79,10,3,17,0.00
2012-5-30,78.6,69.0,53.6,27.0,22.8,16.3,28,18,15,28.94,28.85,9,3,15,0.00
2012-5-31,78.7,62.5,49.1,36.0,22.1,12.4,40,22,15,28.97,28.76,10,4,15,0.00
2012-6-1,59.1,54.3,47.3,37.1,26.3,13.4,54,35,20,28.82,28.64,10,4,18,0.00
2012-6-2,75.4,59.9,46.6,32.1,24.5,16.0,55,29,14,28.85,28.76,14,5,19,0.00
2012-6-3,82.2,66.7,51.2,39.5,26.7,18.7,58,25,14,28.88,28.82,9,3,16,0.00
2012-6-4,84.0,71.2,58.3,29.7,23.6,17.9,26,17,14,28.91,28.79,7,1,13,0.00
2012-6-5,71.7,62.6,50.0,25.1,19.8,13.4,32,19,16,29.00,28.91,10,3,13,0.00
2012-6-6,80.8,64.6,44.6,28.5,20.8,10.7,34,19,14,29.09,29.00,8,2,13,0.00
2012-6-7,87.8,71.4,50.8,30.8,23.6,13.9,28,17,13,29.15,29.06,8,1,13,0.00
2012-6-8,89.7,72.7,50.9,32.1,24.2,13.6,28,17,12,29.12,29.00,7,1,13,0.00
2012-6-9,93.4,78.4,61.9,32.9,26.3,18.6,19,15,11,29.06,28.94,9,2,13,0.00
2012-6-10,98.4,80.8,62.4,34.8,27.1,18.4,21,14,11,29.06,29.00,6,1,13,0.00
2012-6-11,90.9,80.1,70.3,37.3,29.9,24.3,29,17,12,29.00,28.88,6,1,13,0.00
2012-6-12,83.7,74.4,60.1,41.3,29.7,17.6,39,21,14,29.15,28.91,9,3,17,0.00
2012-6-13,80.2,67.2,53.4,28.4,21.6,11.4,26,18,15,29.20,29.12,9,2,13,0.00
2012-6-14,87.8,71.7,52.5,30.8,23.0,13.4,21,16,13,29.18,29.12,8,2,10,0.00
2012-6-15,94.1,77.2,54.5,32.8,25.6,14.2,23,15,11,29.18,29.09,6,1,12,0.00
2012-6-16,99.1,83.1,66.4,34.9,29.1,20.3,25,15,10,29.18,29.00,10,1,13,0.00
2012-6-17,88.3,78.4,68.7,34.9,30.3,22.9,25,18,13,29.03,28.88,9,3,14,0.00
2012-6-18,99.3,83.2,66.9,44.3,33.6,27.0,39,19,10,28.97,28.85,10,3,17,0.00
2012-6-19,99.3,85.4,71.1,34.9,29.7,23.7,22,14,10,29.12,28.94,10,3,17,0.00
2012-6-20,99.4,85.3,70.2,34.9,30.0,24.2,23,14,10,29.15,29.00,10,2,15,0.00
2012-6-21,97.2,80.6,66.0,62.9,35.8,24.3,74,26,11,29.06,28.91,13,4,20,0.00
2012-6-22,87.2,74.3,60.4,55.8,36.3,20.1,74,33,13,29.03,28.94,7,1,10,0.00
2012-6-23,91.2,75.5,56.5,32.6,26.9,18.6,35,18,12,29.09,29.00,6,0,8,0.00
2012-6-24,94.8,81.0,66.9,32.9,28.9,23.1,23,15,11,29.06,28.94,8,2,13,0.00
2012-6-25,83.5,76.0,65.5,29.7,25.9,20.0,22,16,14,29.03,28.94,10,3,15,0.00
2012-6-26,84.2,69.8,49.8,29.5,22.5,12.4,26,17,13,29.09,28.97,8,2,13,0.00
2012-6-27,95.2,75.3,56.7,32.9,24.4,15.2,20,16,11,29.06,28.88,8,1,14,0.00
2012-6-28,106.5,88.3,72.7,42.6,31.6,23.9,16,13,10,28.94,28.82,10,5,17,0.00
2012-6-29,100.9,81.2,67.1,45.7,33.1,26.5,45,20,10,28.97,28.82,8,1,18,0.00
2012-6-30,93.4,76.7,66.9,61.4,41.2,28.1,77,35,11,28.97,28.85,8,2,13,0.00
2012-7-1,95.9,77.5,66.9,61.5,41.6,26.5,71,33,11,29.09,28.91,12,1,20,0.00
2012-7-2,97.4,81.8,64.6,55.6,38.1,28.0,67,27,11,29.06,29.00,6,1,9,0.00
2012-7-3,98.2,84.6,70.9,44.2,33.8,28.0,33,18,11,29.03,28.91,8,3,13,0.00
2012-7-4,101.8,88.1,75.4,43.3,35.7,29.7,30,17,10,29.00,28.91,8,3,15,0.00
2012-7-5,101.8,89.1,76.5,48.7,36.4,26.9,34,17,10,29.03,28.97,8,2,13,0.00
2012-7-6,106.5,90.9,75.7,42.6,35.2,30.3,27,15,9,29.06,28.97,7,1,13,0.00
2012-7-7,103.9,92.9,77.7,46.5,37.3,30.9,32,16,9,29.03,28.97,8,2,14,0.00
2012-7-8,100.2,85.0,71.1,42.6,30.6,23.1,30,15,10,29.09,28.97,8,2,12,0.00
2012-7-9,94.7,78.9,61.9,32.9,28.9,24.3,28,17,11,29.09,29.03,7,1,10,0.00
2012-7-10,93.0,80.1,64.9,32.6,27.5,20.8,20,15,12,29.12,29.06,8,2,12,0.00
2012-7-11,92.3,79.2,63.0,32.3,26.7,18.7,18,15,12,29.18,29.09,8,3,13,0.00
2012-7-12,97.5,80.7,63.0,34.2,27.2,19.2,21,14,11,29.15,29.06,8,2,11,0.00
2012-7-13,92.4,81.7,68.5,39.3,30.6,23.7,32,16,12,29.18,29.06,7,2,12,0.00
2012-7-14,92.5,79.2,69.7,60.5,37.6,28.5,69,26,12,29.15,29.03,7,1,12,0.00
2012-7-15,93.9,81.0,70.3,65.1,43.3,27.6,77,35,11,29.15,29.03,8,2,13,0.00
2012-7-16,99.5,85.1,70.0,43.7,35.4,27.4,37,19,10,29.09,28.94,7,2,12,0.00
2012-7-17,101.7,85.3,75.0,42.6,35.2,28.5,31,18,10,28.97,28.88,8,2,13,0.00
2012-7-18,100.0,82.4,75.0,45.8,38.1,28.8,35,22,10,29.00,28.91,10,2,17,0.00
2012-7-19,88.3,76.2,70.7,64.8,48.3,34.4,75,41,15,29.03,28.85,6,1,10,0.00
2012-7-20,82.8,72.3,64.2,64.7,43.0,19.7,78,45,11,29.09,28.91,9,3,13,0.00
2012-7-21,86.9,73.5,57.2,47.7,31.1,21.1,65,25,11,29.18,29.09,3,0,6,0.00
2012-7-22,92.5,79.9,68.0,44.0,34.1,24.5,33,21,11,29.18,29.09,6,1,9,0.00
2012-7-23,96.8,84.7,74.8,36.4,30.9,25.8,20,15,11,29.15,28.97,10,3,18,0.00
2012-7-24,84.1,79.5,70.9,48.2,36.0,26.9,44,22,14,29.00,28.94,12,3,29,0.00
2012-7-25,98.1,80.6,67.6,50.0,36.1,21.9,47,24,11,29.00,28.79,5,2,10,0.00
2012-7-26,90.0,82.6,73.4,44.1,34.8,28.1,35,19,13,28.85,28.76,9,4,18,0.00
2012-7-27,89.1,76.1,68.1,57.9,41.2,27.3,68,32,13,28.97,28.79,6,1,10,0.00
2012-7-28,86.2,71.7,64.8,55.7,41.0,22.6,69,42,11,29.15,28.94,5,0,8,0.00
2012-7-29,88.5,74.3,59.0,42.2,31.4,22.6,47,23,11,29.15,29.03,5,0,7,0.00
2012-7-30,93.4,78.7,65.5,38.8,33.0,26.2,35,21,11,29.06,28.97,6,0,8,0.00
2012-7-31,88.9,77.8,68.4,38.0,32.0,27.6,32,20,13,29.09,28.91,7,2,12,0.00
2012-8-1,87.1,75.3,63.0,54.1,33.6,20.7,69,26,13,29.00,28.94,6,0,9,0.00
2012-8-2,93.2,77.9,57.2,37.0,29.9,24.5,37,19,11,28.97,28.85,5,0,8,0.00
2012-8-3,97.5,82.4,67.5,38.6,31.7,27.3,32,17,11,29.00,28.91,6,1,11,0.00
2012-8-4,94.2,78.7,69.8,65.6,44.7,35.0,78,35,14,29.00,28.88,18,1,34,0.00
2012-8-5,84.8,76.0,65.8,67.7,42.2,8.6,79,42,6,29.18,28.91,9,2,15,0.00
2012-8-6,89.7,70.8,54.1,36.4,27.2,19.5,45,23,10,29.20,29.06,3,0,6,0.00
2012-8-7,91.2,74.8,56.3,37.9,29.8,22.6,45,22,10,29.06,28.97,6,1,9,0.00
2012-8-8,91.8,80.4,67.1,33.4,29.9,24.3,24,17,12,29.03,28.94,7,2,12,0.00
2012-8-9,84.7,72.8,65.8,57.7,39.4,27.0,70,34,13,29.00,28.79,8,1,15,0.04
2012-8-10,72.5,65.1,58.3,58.3,38.1,16.3,77,44,14,28.91,28.76,12,5,19,0.00
2012-8-11,77.3,66.0,58.3,51.1,30.3,19.5,76,30,13,29.03,28.91,8,4,13,0.00
2012-8-12,81.0,67.6,53.6,46.5,29.1,18.8,68,28,12,29.09,29.03,6,0,7,0.00
2012-8-13,83.7,71.5,63.5,39.0,28.2,22.3,34,21,11,29.06,28.94,5,0,7,0.00
2012-8-14,76.6,68.4,62.2,58.4,41.6,20.5,78,45,13,28.97,28.91,5,0,8,0.04
2012-8-15,86.8,72.5,59.4,50.8,32.0,17.5,67,28,9,29.03,28.97,6,1,10,0.00
2012-8-16,81.5,69.2,64.2,47.2,35.2,22.4,48,31,12,29.09,28.79,12,2,26,0.04
2012-8-17,79.8,69.1,57.9,58.9,33.0,14.6,78,35,10,29.03,28.94,7,1,12,0.00
2012-8-18,77.4,63.6,47.2,36.3,24.1,17.8,52,25,13,29.06,28.97,3,0,7,0.00
2012-8-19,79.1,66.0,53.6,38.7,25.8,17.0,47,25,12,29.00,28.91,5,0,9,0.00
2012-8-20,80.6,65.3,50.4,37.4,25.7,18.5,42,25,12,29.06,28.97,7,0,13,0.00
2012-8-21,79.9,66.5,51.9,43.6,29.0,18.1,64,29,12,29.15,29.03,3,0,6,0.00
2012-8-22,83.6,69.3,51.4,37.9,27.2,20.2,44,23,11,29.18,29.12,5,0,9,0.00
2012-8-23,88.0,72.6,54.1,37.1,28.7,22.2,38,22,12,29.20,29.12,3,0,6,0.00
2012-8-24,91.0,75.6,59.2,35.8,28.7,23.0,35,19,12,29.15,29.09,5,0,8,0.00
2012-8-25,95.1,78.8,64.2,33.5,29.5,24.5,27,17,11,29.15,29.09,6,0,8,0.00
2012-8-26,91.8,78.3,66.7,41.2,31.4,27.2,30,19,12,29.18,29.06,9,1,13,0.00
2012-8-27,86.8,74.8,64.2,65.2,41.6,24.3,76,36,13,29.09,29.03,7,1,13,0.00
2012-8-28,85.4,70.7,57.0,48.1,29.8,22.6,66,25,11,29.15,29.06,6,0,9,0.00
2012-8-29,84.0,70.2,56.7,50.9,29.9,20.4,58,26,11,29.15,29.06,6,0,8,0.00
2012-8-30,88.5,72.2,56.5,38.2,29.7,21.8,41,23,11,29.15,29.06,5,0,8,0.00
2012-8-31,91.4,77.0,61.5,45.5,34.7,23.9,36,23,12,29.18,29.06,8,2,13,0.00
2012-9-1,80.2,75.9,72.0,63.0,50.8,39.4,66,43,24,29.15,29.06,3,0,6,0.00
2012-9-2,77.0,77.0,77.0,50.8,50.8,50.8,40,40,40,29.06,29.06,0,0,0,0.00
2012-9-3,84.0,78.1,70.3,65.3,37.8,22.9,79,26,11,28.97,28.88,7,2,10,0.00
2012-9-4,91.0,76.1,67.5,68.2,41.4,-9.7,79,42,2,28.97,28.88,3,0,8,0.00
2012-9-5,87.1,72.7,65.8,65.0,45.6,24.3,78,43,11,28.97,28.85,8,0,14,0.00
2012-9-6,86.5,71.4,64.0,62.0,43.7,10.7,79,48,6,29.00,28.91,3,0,6,0.00
2012-9-7,82.8,70.2,63.7,58.4,41.0,21.1,76,37,19,28.97,28.73,8,1,22,0.00
2012-9-8,73.3,63.9,55.8,59.1,28.4,1.9,79,37,7,28.94,28.73,8,2,14,0.00
2012-9-9,75.2,63.2,53.6,38.2,22.0,12.0,46,23,10,29.15,28.91,6,1,8,0.00
2012-9-10,75.6,63.3,48.2,43.3,22.1,14.2,69,24,10,29.29,29.12,6,0,7,0.00
2012-9-11,81.3,66.4,53.1,30.0,22.1,15.7,36,20,12,29.35,29.18,5,0,11,0.00
2012-9-12,85.3,69.6,55.5,28.4,23.1,18.4,31,19,11,29.32,29.20,7,1,12,0.00
2012-9-13,84.6,72.8,64.8,33.4,25.5,19.6,31,18,11,29.41,29.20,7,1,9,0.00
2012-9-14,71.8,61.7,53.1,43.7,28.7,14.4,58,31,14,29.41,29.24,7,1,12,0.00
2012-9-15,77.5,60.9,46.8,35.1,23.1,16.7,50,26,13,29.38,29.20,5,0,8,0.00
2012-9-16,78.4,63.5,47.7,35.4,23.9,15.8,54,25,13,29.26,29.06,0,0,0,0.00
2012-9-17,80.2,64.6,52.3,53.1,29.9,21.9,63,30,12,29.06,28.79,1,0,8,0.00
2012-9-18,65.7,59.5,43.5,57.9,28.0,6.3,76,36,13,29.03,28.70,0,0,0,0.00
2012-9-19,69.4,54.7,38.7,32.1,16.3,10.4,60,24,12,29.15,29.00,7,1,13,0.00
2012-9-20,74.7,62.9,51.3,26.3,16.7,9.6,29,17,13,29.03,28.88,8,3,15,0.00
2012-9-21,72.0,57.2,47.5,39.1,19.4,9.1,61,25,14,28.97,28.76,1,0,4,0.00
2012-9-22,61.3,52.0,42.1,47.2,24.1,4.6,77,41,12,29.15,28.76,15,2,28,0.00
2012-9-23,62.4,49.6,39.2,25.4,12.9,5.2,51,25,14,29.24,29.15,8,2,15,0.00
2012-9-24,67.6,51.5,35.7,21.6,13.4,5.0,41,23,15,29.24,29.00,9,2,17,0.00
2012-9-25,67.5,59.4,51.3,43.7,22.5,9.6,49,25,15,29.06,28.91,8,1,13,0.00
2012-9-26,64.8,62.8,59.2,54.7,47.2,38.1,71,57,40,29.15,28.91,8,2,13,0.00
2012-9-27,75.6,63.2,56.3,55.1,30.1,-0.5,78,38,5,29.20,29.09,6,2,9,0.00
2012-9-28,69.0,59.8,54.1,36.8,26.3,12.2,46,30,12,29.20,29.06,6,1,8,0.00
2012-9-29,71.8,57.7,45.7,47.0,21.0,2.6,74,32,8,29.15,28.97,7,1,12,0.00
2012-9-30,66.0,57.9,43.0,30.7,16.6,10.7,52,22,13,28.97,28.88,8,1,12,0.00
2012-10-1,66.0,64.3,53.8,28.2,15.4,13.7,36,16,13,28.94,28.79,7,1,10,0.00
2012-10-2,61.0,57.2,53.2,53.4,43.2,27.1,77,61,36,28.88,28.73,9,4,13,0.00
2012-10-3,68.2,60.9,57.2,53.4,28.1,-7.0,77,42,5,29.09,28.88,8,1,13,0.00
2012-10-4,78.6,64.5,52.9,29.3,17.5,8.4,36,18,8,29.15,29.09,12,2,15,0.00
2012-10-5,66.4,49.4,40.8,35.0,25.6,16.9,72,41,15,29.15,29.03,7,3,12,0.00
2012-10-6,52.4,43.0,34.3,32.5,8.7,-0.3,70,27,13,29.15,29.03,8,3,15,0.00
2012-10-7,50.2,42.1,35.1,21.0,8.1,-1.0,49,26,16,29.18,29.09,8,2,13,0.00
2012-10-8,57.6,43.5,30.0,16.7,6.8,1.1,41,23,14,29.20,29.09,7,1,12,0.00
2012-10-9,64.2,49.8,37.2,17.0,9.4,0.9,31,20,16,29.15,28.88,10,2,15,0.00
2012-10-10,52.0,45.8,35.4,25.4,10.0,0.3,45,24,19,29.18,28.85,13,5,20,0.00
2012-10-11,60.7,46.8,34.3,15.5,9.6,2.1,32,23,17,29.26,29.09,10,3,15,0.00
2012-10-12,56.3,49.1,38.1,12.4,8.8,1.6,22,19,17,29.38,29.12,8,3,14,0.00
2012-10-13,67.5,54.1,37.4,46.2,18.6,0.9,54,26,15,29.29,28.88,6,2,13,0.00
2012-10-14,75.1,65.5,53.6,42.1,28.3,18.0,46,26,13,28.91,28.56,15,6,29,0.00
2012-10-15,56.5,49.4,38.5,37.7,17.8,6.4,62,30,17,28.94,28.73,10,4,16,0.00
2012-10-16,66.9,50.9,33.8,25.7,14.2,7.4,50,26,12,28.94,28.67,6,2,13,0.00
2012-10-17,74.8,62.3,53.8,30.8,19.5,12.7,34,20,13,28.70,28.44,9,4,17,0.00
2012-10-18,63.2,55.7,47.7,39.9,18.3,7.3,66,25,16,28.58,28.38,13,5,17,0.00
2012-10-19,53.8,48.2,46.0,28.8,18.5,10.2,49,31,18,28.61,28.50,8,3,13,0.00
2012-10-20,56.7,47.3,41.4,36.5,17.0,6.8,71,32,15,28.91,28.61,9,4,13,0.00
2012-10-21,68.0,52.5,35.8,28.6,16.0,8.9,57,27,12,29.06,28.91,6,0,10,0.00
2012-10-22,78.6,62.9,51.1,34.3,22.3,14.6,34,22,13,29.00,28.91,9,1,15,0.00
2012-10-23,68.7,63.4,59.8,51.9,28.4,18.7,73,30,17,29.00,28.88,9,2,18,0.00
2012-10-24,79.5,68.6,60.3,30.1,20.4,16.3,29,16,12,29.00,28.91,8,2,13,0.00
2012-10-25,77.2,68.1,59.3,23.3,19.9,15.7,24,16,13,28.94,28.82,9,2,17,0.00
2012-10-26,67.8,48.1,43.3,37.4,14.0,4.9,67,26,15,29.15,28.82,10,3,20,0.00
2012-10-27,54.3,43.4,34.5,11.6,7.6,3.3,33,23,18,29.12,29.03,6,1,10,0.00
2012-10-28,50.4,41.7,34.3,9.6,6.6,3.2,34,24,19,29.09,29.00,6,1,11,0.00
2012-10-29,48.2,41.1,34.2,7.8,3.8,-0.2,25,21,19,29.03,28.70,15,7,22,0.00
2012-10-30,41.7,39.6,37.8,21.6,12.4,2.0,48,33,21,28.70,28.47,17,11,24,0.00
2012-10-31,40.3,39.2,37.0,30.2,15.6,5.0,73,40,23,28.70,28.53,12,7,15,0.00
2012-11-1,52.9,42.0,31.5,33.5,5.0,-1.4,68,21,16,28.73,28.64,10,4,20,0.00
2012-11-2,48.9,40.6,32.0,13.1,6.4,0.9,43,25,19,28.97,28.70,9,2,13,0.00
2012-11-3,38.3,30.4,29.5,13.7,12.8,5.7,51,48,26,29.03,28.94,0,0,3,0.00
2012-11-4,43.5,34.5,25.2,15.0,4.0,-1.5,51,29,18,29.06,28.97,6,1,8,0.00
2012-11-5,45.6,32.9,21.6,10.5,2.5,-3.5,46,29,17,29.03,28.94,7,2,10,0.00
2012-11-6,52.3,38.9,23.4,10.7,5.6,1.2,47,26,16,28.94,28.76,5,1,8,0.00
2012-11-7,49.9,40.7,30.6,10.6,6.7,-0.0,34,25,19,28.97,28.73,7,2,12,0.00
2012-11-8,51.2,36.7,25.6,16.8,6.2,0.9,42,29,19,29.06,28.94,6,1,10,0.00
2012-11-9,62.2,47.7,30.4,19.5,11.7,4.7,46,25,14,29.00,28.85,6,1,13,0.00
2012-11-10,70.3,58.6,49.1,19.9,13.7,8.5,19,17,14,28.97,28.85,7,3,15,0.00
2012-11-11,68.9,60.0,52.0,19.3,14.2,9.7,18,16,15,28.97,28.76,9,4,17,0.00
2012-11-12,61.5,40.3,31.1,41.6,11.8,-1.7,69,33,16,29.12,28.73,10,6,17,0.00
2012-11-13,39.2,31.5,24.6,6.1,0.5,-6.1,39,27,21,29.32,29.12,7,2,10,0.00
2012-11-14,44.1,31.5,21.4,5.5,1.5,-2.7,42,28,20,29.41,29.15,7,2,9,0.00
2012-11-15,46.6,31.8,22.1,10.9,4.7,-2.0,55,34,17,29.20,29.09,3,0,6,0.00
2012-11-16,52.6,34.5,22.8,13.8,4.2,-2.0,44,29,16,29.24,29.12,3,0,6,0.00
2012-11-17,55.3,38.5,24.3,12.4,6.0,-0.5,41,27,18,29.32,29.20,6,1,8,0.00
2012-11-18,59.2,38.4,31.6,14.3,6.3,0.3,34,27,17,29.20,29.09,6,1,6,0.00
2012-11-19,63.7,46.0,31.5,16.6,6.7,-1.7,25,20,16,29.09,28.88,3,0,6,0.00
2012-11-20,57.4,49.4,45.1,15.8,11.0,6.3,29,21,17,28.91,28.79,5,0,7,0.00
2012-11-21,60.4,45.8,34.5,32.4,16.3,6.7,74,35,14,28.97,28.88,5,0,6,0.00
2012-11-22,64.4,51.6,38.3,29.7,17.2,8.5,62,30,13,28.91,28.64,12,2,15,0.00
2012-11-23,53.9,36.6,28.2,40.5,5.5,-4.9,63,28,18,28.88,28.58,15,9,25,0.00
2012-11-24,30.9,28.2,24.1,-2.8,-4.7,-7.6,26,23,23,28.94,28.79,8,4,12,0.00
2012-11-25,46.0,34.7,26.5,7.1,0.9,-4.1,30,23,20,28.79,28.58,9,4,15,0.00
2012-11-26,50.0,35.8,25.5,10.7,5.1,0.9,40,28,19,29.00,28.73,6,1,8,0.00
2012-11-27,39.1,31.1,25.4,11.0,2.6,-6.0,45,31,18,29.09,28.97,6,0,8,0.00
2012-11-28,42.3,31.6,24.2,5.0,0.5,-3.9,35,26,21,29.03,28.94,8,3,13,0.00
2012-11-29,50.2,37.6,27.5,9.3,3.2,-2.5,31,24,19,29.00,28.85,8,2,13,0.00
2012-11-30,57.6,44.7,34.0,13.1,6.2,-0.5,25,20,17,28.85,28.76,8,2,13,0.00
2012-12-1,63.7,51.6,38.7,20.3,13.0,5.7,37,22,16,28.88,28.73,7,2,13,0.00
2012-12-2,61.5,57.1,54.0,47.4,28.1,12.8,73,36,17,28.79,28.67,8,3,15,0.00
2012-12-3,67.5,60.8,55.9,55.1,38.1,16.3,77,51,16,28.88,28.67,6,2,13,0.00
2012-12-4,60.2,51.2,39.9,40.5,23.9,11.3,67,37,19,28.91,28.67,8,2,12,0.00
2012-12-5,42.3,36.6,30.2,13.9,3.4,-2.7,38,25,18,29.15,28.88,7,2,12,0.00
2012-12-6,47.1,42.9,41.5,12.8,8.9,3.4,29,25,17,28.70,28.64,3,0,6,0.00
2012-12-7,48.7,45.3,41.7,38.7,24.9,12.2,75,46,29,28.67,28.53,6,1,8,0.00
2012-12-8,48.0,44.2,38.7,39.7,26.0,13.0,77,52,27,28.85,28.50,9,3,13,0.00
2012-12-9,52.5,43.3,38.5,45.9,28.4,12.0,78,57,33,28.76,28.38,10,5,15,0.00
2012-12-10,47.3,34.5,30.6,33.4,12.3,2.8,68,40,26,28.58,28.38,10,6,17,0.00
2012-12-11,37.5,30.8,26.2,14.3,-0.1,-10.1,48,28,14,28.88,28.58,9,4,13,0.00
2012-12-12,44.6,31.9,24.1,4.1,-0.9,-7.6,40,26,15,29.03,28.88,6,1,8,0.00
2012-12-13,47.3,35.0,27.0,4.6,-0.0,-3.6,32,23,17,29.03,28.85,7,2,10,0.00
2012-12-14,52.2,39.9,32.2,7.2,0.1,-4.5,20,18,16,28.91,28.79,7,2,12,0.00
2012-12-15,51.4,45.2,39.7,26.8,11.0,-0.4,39,26,18,28.79,28.38,10,3,15,0.00
2012-12-16,55.0,50.1,41.7,32.4,22.1,11.6,49,34,18,28.41,28.32,12,4,16,0.00
2012-12-17,43.7,40.4,36.9,25.8,15.2,9.8,63,36,25,28.41,28.26,6,1,8,0.00
2012-12-18,42.3,38.3,35.6,26.3,12.4,-0.8,64,36,18,28.47,28.32,9,4,15,0.00
2012-12-19,45.5,40.8,36.9,15.8,11.4,5.0,40,30,20,28.70,28.35,10,4,17,0.00
2012-12-20,54.0,42.6,32.4,38.6,18.3,-0.8,77,40,18,28.56,27.79,22,8,30,0.00
2012-12-21,32.9,29.4,26.2,25.8,5.3,-2.0,76,37,25,28.64,27.93,13,3,24,0.00
2012-12-22,29.7,24.8,20.5,-0.3,-3.8,-9.2,34,28,20,28.79,28.56,10,5,15,0.00
2012-12-23,39.0,28.5,22.3,6.6,-3.1,-8.3,44,25,19,28.56,28.44,5,1,7,0.00
2012-12-24,34.1,30.6,25.5,12.3,6.0,1.5,48,35,25,28.53,28.29,8,4,11,0.00
2012-12-25,33.8,31.2,29.1,12.5,1.4,-4.5,45,28,20,28.76,28.50,13,4,17,0.00
2012-12-26,31.5,29.6,27.0,21.9,6.5,-6.0,72,39,23,28.58,28.20,20,6,25,0.00
2012-12-27,36.3,27.1,19.2,14.9,-3.2,-8.6,79,27,19,28.61,28.38,12,3,13,0.00
2012-12-28,35.1,28.3,19.0,12.6,1.9,-4.5,51,33,20,28.61,28.29,6,1,9,0.00
2012-12-29,33.2,27.9,23.7,13.2,5.2,-5.2,52,38,25,28.58,28.20,10,4,15,0.00
2012-12-30,30.3,22.7,15.4,-1.4,-6.8,-13.9,34,27,20,28.79,28.56,8,4,13,0.00
2012-12-31,36.7,30.9,22.8,13.7,3.2,-5.3,46,31,19,28.64,28.44,10,7,17,0.00
2013-1-1,32.2,25.1,15.3,15.7,-2.7,-10.7,52,30,20,28.53,28.44,7,2,9,0.00